Weather Roundup
Issued by NWS

Home | Current Version | Previous Version | Graphics & Text | Print | Product List | Glossary Off
Versions: 1 2 3 4 5 6 7 8 9 10 11 12 13 14 15 16 17 18 19 20 21 22 23 24 25 26 27 28 29 30 31 32 33 34 35 36 37 38 39 40 41 42 43 44 45 46 47 48 49 50

000
NZUS93 KARX 280159
HRRWXR

CURRENT HOURLY OBSERVATIONS ACROSS
MUCH OF THE UPPER MISSISSIPPI VALLEY
NATIONAL WEATHER SERVICE LA CROSSE WI
800 PM CST THU NOV 27 2014


...SOUTHEAST MINNESOTA...


CITY           SKY/WX    TMP DP  RH WIND       PRES   REMARKS
ROCHESTER      MOCLDY     2  -4  76 S5        30.32F WCI  -8
ROCHESTER/MAYO CLOUDY     5  -4  67 E3        30.33F
WINONA         MOCLDY    10   1  67 CALM      30.40F
AUSTIN         MOCLDY     1  -4  78 S3        30.32F
ALBERT LEA     MOCLDY     5  -2  72 S8        30.30F WCI  -8
DODGE CENTER   MOCLDY     3  -2  78 S6        30.30F WCI  -8
PRESTON        PTCLDY     3  -3  76 CALM      30.34F
OWATONNA       MOCLDY     3  -4  72 SE9       30.30F WCI -11
FARIBAULT      CLOUDY     3  -2  78 SE5       30.31F WCI  -6
$$

...ELSEWHERE IN MINNESOTA...


CITY           SKY/WX    TMP DP  RH WIND       PRES   REMARKS
MINNEAPOLIS    MOCLDY     6  -4  63 S7        30.34F WCI  -6
INTNL FALLS    PTCLDY    -3  -9  75 SE5       30.24F WCI -13
DULUTH         FAIR       2  -6  69 SW5       30.26F WCI  -8
RED WING       MOCLDY     9   0  66 CALM      30.35F
REDWOOD FALLS  CLOUDY     4  -3  73 SE13      30.28F WCI -13
MANKATO        CLOUDY     1  -8  66 SE8       30.30F WCI -12
WORTHINGTON    CLOUDY     9   0  66 S9        30.22F WCI  -5
FAIRMONT       CLOUDY     3  -2  78 SE12      30.27F WCI -13
$$

...SOUTHWEST WISCONSIN...


CITY           SKY/WX    TMP DP  RH WIND       PRES   REMARKS
LA CROSSE      MOCLDY    12   2  64 CALM      30.40S
PRAIRIE DU CHI PTCLDY    11  -1  59 W3        30.43R
BOSCOBEL       PTCLDY     9   2  73 CALM      30.42R
LONE ROCK      NOT AVBL
PLATTEVILLE    PTCLDY    10  -1  60 CALM      30.39R
FORT MC COY    PTCLDY     2  -1  86 CALM      30.39F
VIROQUA        FAIR       6   0  74 SW3       30.35R
WIS DELLS      NOT AVBL
$$

...ELSEWHERE IN WISCONSIN...


CITY           SKY/WX    TMP DP  RH WIND       PRES   REMARKS
MILWAUKEE      CLEAR     16   7  67 W5        30.39S WCI   9
MADISON        PTCLDY     8   4  83 CALM      30.38F
GREEN BAY      CLEAR      6   1  80 W7        30.38S WCI  -6
EAU CLAIRE     PTCLDY     4  -2  76 CALM      30.35F
BLACK RVR FLS  FAIR       0  -4  83 CALM      30.38F
MEDFORD        PTCLDY     0  -4  84 CALM      30.30S
WAUSAU         PTCLDY     4  -2  76 NW6       30.32S WCI  -7
WIS RAPIDS     PTCLDY     1  -5  75 CALM      30.37F
MARSHFIELD     PTCLDY    -1  -5  82 SW3       30.32F
RICE LAKE      CLEAR      1  -4  77 CALM      30.35F
$$

...NORTHEAST IOWA...


CITY           SKY/WX    TMP DP  RH WIND       PRES   REMARKS
DECORAH        CLOUDY     5  -2  72 CALM      30.36F
MASON CITY     MIX PCPN   5  -1  76 SE9       30.33F WCI  -9
CHARLES CITY   CLOUDY     5  -2  72 SE3       30.36F
OELWEIN        CLOUDY     7   0  72 CALM      30.38F
$$

...ELSEWHERE IN IOWA...


CITY           SKY/WX    TMP DP  RH WIND       PRES   REMARKS
DES MOINES     FLURRIES  14   4  64 E7        30.37F WCI   4
IOWA CITY      PTCLDY    11   5  77 N5        30.43F WCI   3
FORT DODGE     CLOUDY     9  -2  61 SE6       30.31F WCI  -1
$$

...NORTHERN ILLINOIS...


CITY           SKY/WX    TMP DP  RH WIND       PRES   REMARKS
CHICAGO-OHARE  PTCLDY    18   9  68 N7        30.39S WCI   9
CHICAGO-MIDWAY PTCLDY    21  10  62 NW8       30.40S WCI  11
MOLINE         PTCLDY    10   3  73 CALM      30.42F
ROCKFORD       MOCLDY    13   3  64 CALM      30.42S
PEORIA         PTCLDY    14   7  73 NW3       30.44F
$$

NOTE: "FAIR" INDICATES FEW OR NO CLOUDS BELOW 12,000 FEET WITH NO
SIGNIFICANT WEATHER AND/OR OBSTRUCTIONS TO VISIBILITY. WIND
SPEEDS ARE IN MILES-PER-HOUR.



USA.gov is the U.S. government's official web portal to all federal, state and local government web resources and services.